Location: Barcelona
(41.3830°N, 2.1830°E)
Time: 00:31:37
(UTC+02:00)

ISS - Pass Details

Date: 14 July 2019
Orbit: 409 x 418 km, 51.6° (Epoch: 22 July)

Event Time Altitude Azimuth Distance (km) Brightness Sun altitude
Exits shadow 01:35:50 22° 18° (NNE) 957 -1.3 -26.7°
Drops below altitude 10° 01:37:28 10° 39° (NE) 1,483 -0.4 -26.7°
Sets 01:39:43 0° 51° (NE) 2,345 0.5 -26.7°
